Date_and_time,latitude,longitude,wind_speed,RelWindDirFrom,WindDirFrom,air_pressure,air_temperature,relative_humidity,Temp,platform_speed_wrt_ground,air_pressure_at_mean_sea_level,platform_orientation
2019-10-06 23:40,50.6304366666667,-96.98076,7.0,10.8,286,979.91,10.4,60,9.32,0.0,1006.52,192.6
2019-10-06 23:50,50.6304383333333,-96.980755,5.6,8.8,286,980.08,10.4,60,9.36,0.0,1006.67,192.6
2019-10-07 00:00,50.6304383333333,-96.980755,5.1,9.0,291,980.26,10.2,60,9.37,0.0,1006.88,90.0
2019-10-07 00:10,50.63044,-96.9807566666667,4.4,6.9,288,980.44,10.0,61,9.38,0.0,1007.08,90.0
2019-10-07 00:20,50.6304383333333,-96.9807583333333,4.2,6.8,281,980.60,9.8,62,9.38,0.0,1007.26,90.0
2019-10-07 00:30,50.6304383333333,-96.9807583333333,3.7,6.3,278,980.76,9.6,63,9.38,0.0,1007.46,90.0
2019-10-07 00:40,50.6304383333333,-96.98076,4.1,7.6,284,980.98,9.3,63,9.38,0.0,1007.71,90.0
2019-10-07 00:50,50.6304383333333,-96.9807583333333,6.1,9.3,288,981.14,9.4,59,9.40,0.0,1007.86,90.0
2019-10-07 01:00,50.6304383333333,-96.9807583333333,5.8,9.8,307,981.30,9.4,60,9.45,0.0,1008.03,12.6
2019-10-07 01:10,50.6304383333333,-96.9807583333333,3.6,5.1,285,981.52,9.0,62,9.48,0.0,1008.27,12.6
2019-10-07 01:20,50.6304383333333,-96.9807583333333,3.0,4.5,268,981.69,8.7,63,9.48,0.0,1008.45,12.6
2019-10-07 01:30,50.6304383333333,-96.9807583333333,2.8,4.1,262,981.78,8.4,64,9.48,0.0,1008.54,12.6
2019-10-07 01:40,50.6304383333333,-96.9807583333333,2.8,4.0,248,981.86,8.1,64,9.46,0.0,1008.63,12.6
2019-10-07 01:50,50.6304383333333,-96.9807583333333,3.2,4.4,246,982.01,7.8,65,9.46,0.0,1008.82,12.6
2019-10-07 02:00,50.63044,-96.9807583333333,2.4,4.0,243,982.10,7.5,67,9.47,0.0,1008.92,360.0
2019-10-07 02:10,50.63044,-96.9807583333333,2.9,4.2,243,982.30,7.2,68,9.46,0.0,1009.16,360.0
2019-10-07 02:20,50.63044,-96.9807583333333,2.2,3.8,253,982.47,7.0,69,9.45,0.0,1009.36,360.0
2019-10-07 02:30,50.6304383333333,-96.98076,3.0,4.3,249,982.59,6.9,69,9.45,0.0,1009.50,360.0
2019-10-07 02:40,50.63044,-96.98076,4.1,10.3,264,982.73,7.0,68,9.45,0.0,1009.63,360.0
2019-10-07 02:50,50.63044,-96.98076,5.7,9.1,279,982.87,7.7,65,9.43,0.0,1009.74,360.0
2019-10-07 03:00,50.63048,-96.9808183333333,5.0,7.4,271,983.03,7.6,66,9.43,0.0,1009.93,311.8
2019-10-07 03:10,50.6304416666667,-96.9807633333333,4.5,6.4,259,983.23,7.3,68,9.42,0.0,1010.16,311.8
2019-10-07 03:20,50.6304383333333,-96.9807666666667,4.6,6.0,228,983.34,6.6,70,9.42,0.0,1010.33,311.8
2019-10-07 03:30,50.6304366666667,-96.980765,4.1,6.3,226,983.41,6.3,71,9.41,0.0,1010.42,311.8
2019-10-07 03:40,50.630435,-96.9807633333333,4.6,6.8,237,983.53,6.2,71,9.39,0.0,1010.57,311.8
2019-10-07 03:50,50.630435,-96.9807616666667,5.1,7.5,245,983.73,6.1,71,9.39,0.0,1010.79,311.8
2019-10-07 04:00,50.6304316666667,-96.9807616666667,5.1,6.8,236,983.81,5.9,72,9.39,0.0,1010.91,360.0
2019-10-07 04:10,50.630435,-96.9807716666667,5.0,7.0,230,983.89,5.5,74,9.40,0.0,1011.01,360.0
2019-10-07 04:20,50.63044,-96.980765,5.2,7.4,226,983.94,5.4,74,9.40,0.0,1011.07,360.0
2019-10-07 04:30,50.6304383333333,-96.9807633333333,5.2,8.1,230,984.06,5.3,75,9.40,0.0,1011.20,360.0
2019-10-07 04:40,50.6304366666667,-96.9807633333333,4.9,7.0,233,984.13,5.2,76,9.40,0.0,1011.24,360.0
2019-10-07 04:50,50.6304366666667,-96.9807616666667,5.0,7.2,231,984.25,5.0,77,9.39,0.0,1011.38,360.0
2019-10-07 05:00,50.6304366666667,-96.9807616666667,5.1,6.8,234,984.38,4.9,77,9.37,0.0,1011.54,360.0
2019-10-07 05:10,50.6304366666667,-96.9807633333333,5.2,7.0,226,984.58,4.6,79,9.37,0.0,1011.79,360.0
2019-10-07 05:20,50.6304266666667,-96.9807566666667,6.0,7.9,224,984.77,4.5,80,9.39,0.0,1012.00,360.0
2019-10-07 05:30,50.6304333333333,-96.9807633333333,6.4,9.5,240,984.91,4.6,78,9.40,0.0,1012.15,360.0
2019-10-07 05:40,50.630435,-96.980765,6.4,9.7,239,985.02,4.8,78,9.40,0.0,1012.25,360.0
2019-10-07 05:50,50.6304333333333,-96.980765,5.8,8.6,243,985.10,4.8,78,9.43,0.0,1012.35,360.0
2019-10-07 06:00,50.6304333333333,-96.9807666666667,5.5,8.1,250,985.28,4.8,78,9.45,0.0,1012.55,141.6
2019-10-07 06:10,50.6304316666667,-96.980765,5.6,8.2,250,985.35,4.8,78,9.42,0.0,1012.63,141.6
2019-10-07 06:20,50.6304316666667,-96.980765,4.5,8.3,245,985.45,4.6,79,9.43,0.0,1012.74,141.6
2019-10-07 06:30,50.6304316666667,-96.9807633333333,5.1,7.6,234,985.46,4.4,80,9.44,0.0,1012.77,141.6
2019-10-07 06:40,50.6304316666667,-96.9807633333333,6.0,7.8,238,985.53,4.3,81,9.44,0.0,1012.85,141.6
2019-10-07 06:50,50.6304316666667,-96.9807633333333,5.9,9.3,239,985.68,4.2,81,9.44,0.0,1013.02,141.6
2019-10-07 07:00,50.6304316666667,-96.9807633333333,5.9,7.8,238,985.78,4.1,81,9.44,0.0,1013.14,270.0
2019-10-07 07:10,50.63041,-96.9807,5.7,7.7,236,985.80,4.0,82,9.44,0.0,1013.18,270.0
2019-10-07 07:20,50.6304216666667,-96.980755,5.4,7.4,241,985.82,3.9,83,9.43,0.0,1013.20,270.0
2019-10-07 07:30,50.6304266666667,-96.980765,4.7,6.3,248,985.77,4.0,82,9.43,0.0,1013.13,270.0
2019-10-07 07:40,50.6304283333333,-96.9807633333333,4.9,6.7,244,985.80,4.0,82,9.44,0.0,1013.16,270.0
2019-10-07 07:50,50.63042,-96.9807583333333,5.0,6.5,241,985.89,3.9,83,9.44,0.0,1013.25,270.0
2019-10-07 08:00,50.6304233333333,-96.9807616666667,5.9,8.0,239,985.97,3.6,85,9.42,0.0,1013.36,142.0
2019-10-07 08:10,50.6304383333333,-96.9807766666667,5.0,6.3,241,986.00,3.5,86,9.42,0.0,1013.40,142.0
2019-10-07 08:20,50.6304233333333,-96.980745,5.1,6.6,245,986.03,3.4,86,9.41,0.0,1013.45,142.0
2019-10-07 08:30,50.6304266666667,-96.9807533333333,5.5,7.5,241,986.08,3.3,87,9.41,0.0,1013.51,142.0
2019-10-07 08:40,50.6304266666667,-96.98075,6.1,8.2,242,986.14,3.1,88,9.42,0.0,1013.58,142.0
2019-10-07 08:50,50.6304266666667,-96.9807483333333,5.6,7.5,241,986.32,3.1,88,9.41,0.0,1013.77,142.0
2019-10-07 09:00,50.630425,-96.9807483333333,5.5,7.2,239,986.42,3.0,89,9.38,0.0,1013.89,119.2
2019-10-07 09:10,50.630425,-96.9807466666667,5.6,7.5,240,986.48,3.0,89,9.36,0.0,1013.96,119.2
2019-10-07 09:20,50.6304266666667,-96.98075,5.6,7.1,243,986.51,3.0,89,9.35,0.0,1013.97,119.2
2019-10-07 09:30,50.6304283333333,-96.98075,5.7,7.0,238,986.45,3.0,89,9.33,0.0,1013.92,119.2
2019-10-07 09:40,50.6304266666667,-96.9807483333333,5.8,7.2,233,986.42,3.0,90,9.32,0.0,1013.89,119.2
2019-10-07 09:50,50.6304266666667,-96.9807483333333,6.1,7.8,230,986.45,3.1,90,9.32,0.0,1013.93,119.2
2019-10-07 10:00,50.6304266666667,-96.98075,6.4,8.2,234,986.50,3.2,89,9.31,0.0,1013.99,125.3
2019-10-07 10:10,50.63043,-96.9807733333333,5.9,7.4,235,986.65,3.3,89,9.31,0.0,1014.14,125.3
2019-10-07 10:20,50.6304316666667,-96.98077,6.4,8.7,230,986.72,3.1,90,9.31,0.0,1014.23,125.3
2019-10-07 10:30,50.6304333333333,-96.9807716666667,6.4,8.4,231,986.91,3.1,90,9.30,0.0,1014.42,125.3
2019-10-07 10:40,50.630435,-96.9807716666667,5.8,7.7,233,987.05,3.2,90,9.28,0.0,1014.57,125.3
2019-10-07 10:50,50.630435,-96.98077,5.5,7.3,235,987.05,3.2,90,9.24,0.0,1014.58,125.3
2019-10-07 11:00,50.6304283333333,-96.9807566666667,5.5,6.7,234,987.04,3.1,90,9.24,0.0,1014.57,90.0
2019-10-07 11:10,50.6304316666667,-96.9807516666667,5.8,7.7,231,987.11,3.1,90,9.24,0.0,1014.63,90.0
2019-10-07 11:20,50.6304316666667,-96.9807566666667,5.5,7.6,227,987.18,3.2,91,9.24,0.0,1014.71,90.0
2019-10-07 11:30,50.6304416666667,-96.98078,5.0,6.2,223,987.22,2.9,92,9.23,0.0,1014.76,90.0
2019-10-07 11:40,50.630445,-96.980775,6.2,10.0,219,987.09,2.9,93,9.23,0.0,1014.63,90.0
2019-10-07 11:50,50.6304383333333,-96.980765,7.3,9.5,221,987.10,3.2,92,9.23,0.0,1014.62,90.0
2019-10-07 12:00,50.6304366666667,-96.9807616666667,6.2,7.7,219,987.07,3.2,93,9.21,0.0,1014.58,318.7
2019-10-07 12:10,50.630435,-96.9807616666667,5.4,6.2,221,987.05,3.1,93,9.20,0.0,1014.57,318.7
2019-10-07 12:20,50.6304333333333,-96.9807633333333,5.5,6.8,216,987.02,3.2,93,9.19,0.0,1014.54,318.7
2019-10-07 12:30,50.6304333333333,-96.9807633333333,5.4,7.3,212,986.91,3.5,91,9.18,0.0,1014.41,318.7
2019-10-07 12:40,50.6304283333333,-96.9807616666667,6.1,7.5,210,986.96,3.9,87,9.15,0.0,1014.44,318.7
2019-10-07 12:50,50.630425,-96.98075,5.9,7.2,213,986.99,4.1,86,9.13,0.0,1014.46,318.7
2019-10-07 13:00,50.630425,-96.9807583333333,5.5,7.1,213,987.00,4.1,86,9.11,0.0,1014.47,270.0
2019-10-07 13:10,50.630425,-96.98076,5.8,7.5,210,986.93,4.2,85,9.08,0.0,1014.39,270.0
2019-10-07 13:20,50.6304183333333,-96.98076,6.7,8.1,207,986.81,4.2,83,9.06,0.0,1014.28,270.0
2019-10-07 13:30,50.6304366666667,-96.9807716666667,7.5,9.0,203,986.76,4.3,81,9.05,0.0,1014.23,270.0
2019-10-07 13:40,50.6304383333333,-96.9807783333333,7.4,9.7,204,986.80,4.6,79,9.04,0.0,1014.23,270.0
2019-10-07 13:50,50.630435,-96.9807766666667,7.6,10.1,206,986.80,5.3,74,9.02,0.0,1014.20,270.0
2019-10-07 14:00,50.6304333333333,-96.980775,7.9,9.7,208,986.82,5.6,72,9.01,0.0,1014.21,305.3
2019-10-07 14:10,50.6304416666667,-96.9807466666667,6.8,8.4,208,986.80,5.8,71,9.01,0.0,1014.18,305.3
2019-10-07 14:20,50.630425,-96.98077,6.0,7.8,200,986.66,6.0,70,9.01,0.0,1014.01,305.3
2019-10-07 14:30,50.63043,-96.9807683333333,5.2,6.8,183,986.60,6.5,71,9.00,0.0,1013.90,305.3
2019-10-07 14:40,50.6304283333333,-96.9807716666667,7.3,11.5,181,986.54,7.0,70,9.00,0.0,1013.81,305.3
2019-10-07 14:50,50.6304383333333,-96.98077,8.7,10.8,179,986.46,7.1,69,8.99,0.0,1013.72,305.3
2019-10-07 15:00,50.630435,-96.9807616666667,9.3,12.5,181,986.44,7.2,68,9.00,0.0,1013.69,0.0
2019-10-07 15:10,50.6304366666667,-96.9807633333333,8.8,11.8,185,986.46,7.5,67,9.00,0.0,1013.69,0.0
2019-10-07 15:20,50.630435,-96.980755,8.9,12.4,182,986.44,7.6,67,9.00,0.0,1013.67,0.0
2019-10-07 15:30,50.630435,-96.980755,9.1,12.3,182,986.47,7.8,67,9.00,0.0,1013.67,0.0
2019-10-07 15:40,50.630425,-96.9807666666667,10.1,12.6,180,986.41,7.9,66,9.01,0.0,1013.57,0.0
2019-10-07 15:50,50.63042,-96.98074,9.6,12.1,174,986.33,8.0,67,9.02,0.0,1013.47,0.0
2019-10-07 16:00,50.6304183333333,-96.9807633333333,9.9,12.0,176,986.26,8.1,67,9.05,0.0,1013.38,360.0
2019-10-07 16:10,50.6304083333333,-96.9807833333333,8.7,11.2,179,986.23,8.4,68,9.07,0.0,1013.33,360.0
2019-10-07 16:20,50.6304166666667,-96.9807766666667,7.6,9.5,179,986.10,8.7,68,9.08,0.0,1013.15,360.0
2019-10-07 16:30,50.6304216666667,-96.9807716666667,8.7,12.1,171,985.88,9.0,67,9.08,0.0,1012.89,360.0
2019-10-07 16:40,50.6304283333333,-96.9807733333333,10.4,12.6,174,985.79,9.4,65,9.08,0.0,1012.78,360.0
2019-10-07 16:50,50.6304366666667,-96.9807583333333,10.2,12.7,171,985.79,9.7,65,9.09,0.0,1012.75,360.0
2019-10-07 17:00,50.6304333333333,-96.980765,10.1,13.3,172,985.75,10.2,62,9.10,0.0,1012.67,90.0
2019-10-07 17:10,50.6304283333333,-96.9807666666667,10.2,14.2,173,985.65,10.7,61,9.12,0.0,1012.54,90.0
2019-10-07 17:20,50.6304283333333,-96.9807666666667,12.6,16.5,172,985.49,11.0,59,9.13,0.0,1012.35,90.0
2019-10-07 17:30,50.6304283333333,-96.9807666666667,10.1,13.3,166,985.46,11.3,60,9.15,0.0,1012.30,90.0
2019-10-07 17:40,50.6304266666667,-96.980765,13.7,17.5,175,985.33,11.7,56,9.16,0.0,1012.14,90.0
2019-10-07 17:50,50.6304266666667,-96.980765,13.4,17.7,174,985.27,12.2,54,9.17,0.0,1012.05,90.0
2019-10-07 18:00,50.6304283333333,-96.9807633333333,13.6,17.9,176,985.10,12.5,53,9.19,0.0,1011.85,194.5
2019-10-07 18:10,50.63043,-96.9807633333333,11.8,15.3,173,984.95,12.8,54,9.21,0.0,1011.67,194.5
2019-10-07 18:20,50.6304283333333,-96.9807633333333,14.0,16.4,172,984.73,13.1,52,9.22,0.0,1011.41,194.5
2019-10-07 18:30,50.63042,-96.9807566666667,11.6,16.5,175,984.52,13.4,52,9.23,0.0,1011.16,194.5
2019-10-07 18:40,50.63042,-96.9807533333333,13.1,16.6,174,984.32,13.5,51,9.24,0.0,1010.93,194.5
2019-10-07 18:50,50.6304216666667,-96.98076,13.6,16.9,168,984.11,13.7,51,9.27,0.0,1010.69,194.5
2019-10-07 19:00,50.63042,-96.980765,14.3,19.2,173,983.97,14.0,49,9.27,0.0,1010.51,360.0
2019-10-07 19:10,50.630415,-96.9807766666667,14.1,17.7,174,983.74,14.1,50,9.27,0.0,1010.26,360.0
2019-10-07 19:20,50.6304316666667,-96.9807616666667,15.1,20.0,177,983.57,14.2,49,9.28,0.0,1010.06,360.0
2019-10-07 19:30,50.63042,-96.98076,12.6,17.4,181,983.50,14.5,50,9.31,0.0,1009.96,360.0
2019-10-07 19:40,50.6304183333333,-96.9807683333333,12.8,18.2,186,983.39,14.7,49,9.35,0.0,1009.81,360.0
2019-10-07 19:50,50.6304183333333,-96.9807683333333,14.3,19.5,182,983.25,14.8,49,9.38,0.0,1009.64,360.0
2019-10-07 20:00,50.6304183333333,-96.9807666666667,13.8,19.5,185,983.09,15.1,49,9.41,0.0,1009.46,360.0
2019-10-07 20:10,50.63042,-96.980765,13.9,19.7,180,982.95,15.2,49,9.45,0.0,1009.30,360.0
2019-10-07 20:20,50.6304166666667,-96.9807633333333,14.1,20.3,178,982.78,15.3,49,9.50,0.0,1009.10,360.0
2019-10-07 20:30,50.630425,-96.9807583333333,12.6,18.0,177,982.73,15.6,49,9.53,0.0,1009.03,360.0
2019-10-07 20:40,50.6304233333333,-96.98076,13.0,19.3,180,982.64,16.0,47,9.53,0.0,1008.91,360.0
2019-10-07 20:50,50.630425,-96.9807616666667,14.6,19.4,176,982.54,16.2,47,9.56,0.0,1008.78,360.0
2019-10-07 21:00,50.630425,-96.98076,15.6,20.1,171,982.43,16.2,48,9.59,0.0,1008.66,90.0
2019-10-07 21:10,50.6304433333333,-96.980775,14.8,21.9,171,982.36,16.4,47,9.59,0.0,1008.58,90.0
2019-10-07 21:20,50.630435,-96.9807616666667,14.8,20.9,175,982.29,16.5,47,9.62,0.0,1008.50,90.0
2019-10-07 21:30,50.63043,-96.9807566666667,15.4,21.3,178,982.23,16.7,46,9.64,0.0,1008.41,90.0
2019-10-07 21:40,50.63043,-96.9807583333333,15.6,20.4,177,982.07,16.9,44,9.64,0.0,1008.24,90.0
2019-10-07 21:50,50.63043,-96.9807583333333,17.2,22.0,173,981.97,17.0,43,9.65,0.0,1008.11,90.0
2019-10-07 22:00,50.63043,-96.9807616666667,14.8,18.7,174,981.95,17.2,43,9.67,0.0,1008.08,48.3
2019-10-07 22:10,50.6304283333333,-96.9807616666667,13.9,17.3,172,981.86,17.2,44,9.67,0.0,1007.97,48.3
2019-10-07 22:20,50.6304233333333,-96.9807683333333,13.3,19.2,165,981.68,17.1,45,9.67,0.0,1007.78,48.3
2019-10-07 22:30,50.6304316666667,-96.980775,11.9,15.3,162,981.55,16.9,46,9.67,0.0,1007.65,48.3
2019-10-07 22:40,50.6304316666667,-96.9807716666667,11.5,13.7,161,981.46,16.9,47,9.67,0.0,1007.55,48.3
2019-10-07 22:50,50.6304316666667,-96.98077,11.4,14.9,146,981.41,15.4,55,9.68,0.0,1007.56,48.3
2019-10-07 23:00,50.6304233333333,-96.9807683333333,13.2,15.7,143,981.32,13.2,66,9.70,0.0,1007.56,360.0
2019-10-07 23:10,50.6304233333333,-96.98077,12.5,15.5,149,981.21,12.8,68,9.70,0.0,1007.46,360.0
2019-10-07 23:20,50.6304233333333,-96.98077,12.4,14.8,152,981.10,12.8,69,9.69,0.0,1007.33,360.0
2019-10-07 23:30,50.6304266666667,-96.98077,11.9,14.0,151,981.00,12.7,70,9.68,0.0,1007.23,360.0
2019-10-07 23:40,50.6304283333333,-96.9807683333333,12.1,15.1,149,980.92,12.6,70,9.69,0.0,1007.16,360.0
2019-10-07 23:50,50.6304266666667,-96.9807666666667,11.3,14.0,152,980.88,12.0,75,9.69,0.0,1007.13,360.0
